Location: Huisseau
(47.5933°N, 1.4533°E)
Time: 17:49:38
(UTC+00:00)

CENTAUR R/B - Pass Details

Date: 18 November 2025
Orbit: 633 x 1547 km, 63.4° (Epoch: 06 December)

Event Time Altitude Azimuth Distance (km) Brightness Sun altitude
Exits shadow 01:17:31 17° 48° (NE) 2,917 5.3 -55.3°
Drops below altitude 10° 01:19:49 10° 60° (ENE) 3,477 5.7 -55.1°
Sets 01:23:43 0° 73° (ENE) 4,568 6.5 -54.6°
